Погода в Вышнем Волочке

Россия / Тверская область     57°35′20″N   34°33′37″E
темп.,
°C
ветер,
м/с
пор.,
м/с
влажн.,
%
обл.,
%
осадки,
мм/ч
давл.,
гПа
погр.,
м
25 мая, ср
ср2500:00+3с247482 0.0 1015165
03:000с119181 0.0 101610
06:00+2с117963 0.0 1017134
09:00+7сз2257100 0.0 1016935
12:00+10зсз2351100 0.0 10161394
15:00+9ссз1367100 0.1 10151109
18:00+10ссв026561 0.0 1014820
21:00+6ююв2390100 0.0 101347
26 мая, чт
чт2600:00+5ююз2290100 0.0 101249
03:00+4з2384100 0.0 101145
06:00+6с117726 0.0 101060
09:00+12юв125634 0.0 1008398
12:00+17ю234499 0.0 10051302
15:00+11юз2695100 1.4 1004223
18:00+10ю2598100 1.6 1002179
21:00+10юз3798100 3.3 1001411
27 мая, пт
пт2700:00+8юз2798100 0.3 1000202
03:00+7юз31098100 0.3 999332
06:00+8з4109395 0.0 999642
09:00+10зюз3796100 0.3 1001686
12:00+12зюз478035 0.5 1001942
15:00+15зюз585396 1.1 10001908
18:00+14юз3767100 0.8 10001057
21:00+10юз3879100 1.2 999228
28 мая, сб
сб2800:00+9ююз3994100 0.6 997366
03:00+9зюз3995100 4.9 995530
06:00+8зюз4993100 0.6 995775
09:00+7юз51192100 0.9 9961183
12:00+7зюз51294100 1.7 9981116
15:00+9юз61183100 2.1 10001212
18:00+11зюз596129 0.1 10011576
21:00+9ююз410725 0.1 1002448
29 мая, вс
вс2900:00+5ююз310978 0.0 1003330
03:00+5ююз310976 0.0 1003288
06:00+6юз3109013 0.0 1004362
09:00+11юз577297 0.0 1005935
12:00+9юз588097 0.1 1007912
15:00+12юз586899 0.4 10081291
18:00+12юз486583 0.1 1008954
21:00+10зюз398610 0.1 1010340